Regional Weather Roundup
Issued by NWS

Home | Current Version | Previous Version | Graphics & Text | Print | Product List | Glossary On
Versions: 1 2 3 4 5 6 7 8 9 10 11 12 13 14 15 16 17 18 19 20 21 22 23 24 25 26 27 28 29 30 31 32 33 34 35 36 37 38 39 40 41 42 43 44 45 46 47 48 49 50
000
ASUS43 KLOT 270902
RWRIL

ILLINOIS REGIONAL WEATHER ROUNDUP
NATIONAL WEATHER SERVICE CHICAGO/ROMEOVILLE IL
400 AM CDT MON APR 27 2015

NOTE: "FAIR" INDICATES FEW OR NO CLOUDS BELOW 12,000 FEET WITH NO
SIGNIFICANT WEATHER AND/OR OBSTRUCTIONS TO VISIBILITY.

* THESE STATIONS ARE NOT UNDER NWS QUALITY CONTROL. THEY ALSO MAY NOT
  REPORT WEATHER SUCH AS PRECIPITATION OR FOG.

ILZ001-002-007-009-015-016-024-271000-
NORTHWEST ILLINOIS

CITY           SKY/WX    TMP DP  RH WIND       PRES   REMARKS
MOLINE         CLEAR     34  32  92 CALM      30.07S
STERLING*      CLEAR     37  28  70 NE6       30.09S WCI  33
$$

ILZ003-004-008-010-011-017-018-271000-
NORTH CENTRAL ILLINOIS

CITY           SKY/WX    TMP DP  RH WIND       PRES   REMARKS
ROCKFORD       CLEAR     37  28  70 CALM      30.11F
FREEPORT*      CLEAR     36  28  72 CALM      30.11F
$$

ILZ005-006-012>014-019>023-271000-
NORTHEAST ILLINOIS

CITY           SKY/WX    TMP DP  RH WIND       PRES   REMARKS
CHICAGO-OHARE  CLEAR     39  30  70 N7        30.05F WCI  34
CHICAGO-MIDWAY CLEAR     43  32  65 N12       30.05F
AURORA         CLEAR     36  29  75 N7        30.06F WCI  30
LANSING*       CLEAR     41  32  70 N12G17    30.04F
WAUKEGAN       CLEAR     37  30  75 NW5       30.07R WCI  33
DUPAGE AIRPORT CLEAR     37  30  75 N9        30.05F WCI  30
WHEELING       CLEAR     38  30  73 N6        30.08S WCI  33
NORTHERLY ISL    N/A     42  33  70 N14         N/A
$$

LMZ740>746-271000-
SOUTHERN LAKE MICHIGAN

STATION/POSITION SKY/WX   TEMP    WIND        PRES    VSBY  WAVE
                          AIR SEA DIR/SP/G                  HT/PER
                          (F)     (DEG/KT/KT) (MB)    (MI)  (FT/S)
HARRISON CRIB              41     350/ 20/ 24   N/A
BURNHAM HARBOR             42     350/ 12/ 16   N/A
CALUMET HARBOR             42     330/ 13/ 18   N/A
BURNS HARBOR               42     350/ 16/ 20 1017.3R
MICHIGAN CITY              40     340/ 20/ 22   N/A
MICHIGAN CITY 6N           40 45  350/ 16/ 19   N/A           4/ 5
$$

ILZ025>027-034>036-040-047-049-050-058-095>099-271000-
WEST-CENTRAL ILLINOIS

CITY           SKY/WX    TMP DP  RH WIND       PRES   REMARKS
QUINCY         CLEAR     41  34  76 E5        30.07R
MACOMB*        CLEAR     35  33  93 W6        30.09R WCI  30
$$

ILZ028>032-037-038-041>044-048-051>054-059>061-271000-
CENTRAL ILLINOIS

CITY           SKY/WX    TMP DP  RH WIND       PRES   REMARKS
DECATUR        CLEAR     41  28  60 NW7       30.05R
PEORIA         CLEAR     38  34  85 N3        30.07R
LINCOLN*       CLEAR     40  33  76 NW3       30.06R
SPRINGFIELD    CLEAR     36  32  85 CALM      30.06R
TAYLORVILLE    NOT AVBL
$$

ILZ033-039-045-046-055>057-062-063-271000-
EAST-CENTRAL ILLINOIS

CITY           SKY/WX    TMP DP  RH WIND       PRES   REMARKS
CHAMPAIGN      CLEAR     41  29  62 N13       30.01F
MATTOON        CLEAR     37  29  72 NW5       30.02R WCI  33
$$

ILZ079-100>102-271000-
SOUTHWEST ILLINOIS

CITY           SKY/WX    TMP DP  RH WIND       PRES   REMARKS
ALTON          CLEAR     39  38  94 CALM      30.05R
BELLEVILLE     CLEAR     42  35  76 N5        30.02F
CAHOKIA*       CLEAR     40  37  89 CALM      30.04S
SPARTA*        FAIR      41  36  81 N3        30.03F
$$

ILZ064>066-069>071-074>076-080>082-084>086-088>090-092>094-271000-
SOUTH-CENTRAL ILLINOIS

CITY           SKY/WX    TMP DP  RH WIND       PRES   REMARKS
CARBONDALE     CLEAR     41  35  79 N5        30.01R
MT. VERNON     CLEAR     36  27  69 N3        30.02S
SALEM*         CLEAR     40  33  76 CALM      30.04R
$$

ILZ067-068-072-073-078-083-087-091-271000-
SOUTHEAST ILLINOIS

CITY           SKY/WX    TMP DP  RH WIND       PRES   REMARKS
LAWRENCEVILLE  CLEAR     40  31  70 W3        30.00R
FLORA*         CLEAR     39  32  75 NW3       30.03R
HARRISBURG*    CLEAR     42  34  72 N3        30.02R
ROBINSON*      CLEAR     39  32  77 NW7       30.02R WCI  34
CARMI*         CLEAR     40  32  72 N7        29.99S
$$

ABBREVIATIONS USED IN REMARKS
   TC - TEMPERATURE IN CELSIUS
  WCI - WIND CHILL INDEX
   HX - HEAT INDEX
  VSB - VISIBILITY
$$



USA.gov is the U.S. government's official web portal to all federal, state and local government web resources and services.